Theta_e
323 321 318 316 314 314 314 314 313 311 310 310 310 309 308 306 304 303 302 301 300 300 299 300 299 300 300 297 297 297 300 303 300 304 304 305 307 307 305 303 302 301 301
322 319 316 314 313 313 312 312 312 310 311 310 310 309 307 305 303 302 301 300 300 299 298 298 298 296 299 297 296 296 297 302 301 300 303 306 307 306 304 303 301 301 300
322 317 315 313 312 312 311 311 312 311 310 309 307 306 304 304 303 302 300 299 299 298 297 296 295 296 296 297 295 295 297 300 300 300 300 302 304 302 303 302 300 300 300
321 317 315 313 312 312 311 311 311 310 309 307 307 307 307 307 304 301 300 298 298 297 295 294 294 294 296 295 296 295 297 297 298 299 298 299 299 299 301 302 301 300 299
319 317 315 313 312 312 310 309 309 309 308 307 307 307 306 305 303 301 299 297 296 295 293 293 294 294 294 294 293 295 296 296 296 296 296 297 299 297 298 300 299 300 299
317 316 315 313 312 311 309 308 308 307 307 307 306 306 305 303 302 301 299 297 295 294 292 293 293 292 291 291 293 294 293 294 294 295 294 293 293 293 293 294 295 295 298
316 315 314 312 312 310 309 308 307 306 305 305 304 303 303 302 302 300 298 296 295 295 292 292 291 290 289 290 292 292 291 290 292 292 292 291 290 290 290 291 291 294 298
314 314 313 312 311 309 308 307 306 305 304 303 303 302 301 300 299 298 296 294 294 293 291 290 289 288 288 289 290 290 290 290 290 290 290 291 290 289 289 290 290 293 295
313 313 312 312 311 309 308 307 306 305 304 303 301 300 299 298 297 296 294 293 292 291 289 289 288 287 287 288 289 290 290 290 290 289 289 290 290 290 290 289 290 290 292
313 313 312 312 310 309 308 307 306 304 303 302 300 299 298 297 296 294 292 292 290 290 289 288 288 288 288 289 289 289 289 289 289 289 289 289 289 289 289 289 289 290 290
313 312 311 311 310 308 307 306 305 304 302 301 300 298 297 295 294 292 291 291 290 290 289 288 288 288 289 289 289 289 289 289 289 289 288 288 289 289 288 289 289 289 289
312 312 310 310 309 307 306 305 304 303 301 300 299 298 296 294 293 291 291 290 290 289 289 288 287 287 288 288 288 288 288 288 289 289 288 287 288 288 288 288 288 288 288
309 310 310 309 307 305 304 304 303 301 300 299 298 297 295 294 292 290 290 290 290 289 289 288 288 287 287 287 287 287 287 287 287 288 287 285 286 286 287 287 287 287 288
307 309 308 308 306 304 303 303 302 300 300 299 298 296 295 293 292 290 289 289 289 288 288 287 286 286 286 286 286 287 287 286 285 286 285 285 285 285 285 285 285 285 286
308 309 309 307 305 304 303 301 301 300 299 298 297 296 294 293 291 289 289 288 288 287 286 286 286 286 286 286 286 286 285 286 285 285 284 284 284 284 284 284 284 284 284
307 309 310 308 306 302 302 299 300 299 298 297 296 295 294 292 290 288 287 287 287 286 286 286 286 286 285 285 284 284 284 284 284 284 284 284 284 284 284 283 283 283 283
308 310 310 309 307 303 299 300 300 299 298 297 297 295 294 292 290 288 287 287 287 286 286 285 285 285 285 284 284 284 284 284 284 284 283 283 283 283 283 283 283 282 282
311 311 310 309 306 304 301 300 300 299 298 297 297 295 293 292 290 288 287 287 288 287 285 285 285 284 284 284 284 284 284 284 284 283 283 283 283 283 282 282 282 281 281
309 309 309 307 305 303 301 300 299 299 297 297 297 295 293 291 290 288 288 288 288 288 288 287 287 286 284 284 284 284 284 284 283 283 283 283 283 282 282 282 281 281 280
308 307 306 305 304 302 301 300 299 298 297 297 295 294 293 292 290 289 288 288 288 288 288 287 286 286 285 284 284 283 284 283 283 283 283 283 283 282 281 281 281 281 280
307 306 305 304 303 301 301 299 298 297 296 295 295 293 292 292 291 290 289 289 289 288 288 286 286 284 285 283 283 283 283 283 282 282 282 283 282 281 281 280 280 280 280
306 304 304 304 302 300 299 298 298 297 296 295 293 293 293 292 291 290 289 289 289 289 288 287 286 284 284 284 283 283 283 283 282 282 282 282 281 281 280 280 279 279 279
307 305 305 303 301 299 297 297 297 296 295 294 294 292 292 291 291 291 290 289 289 288 288 287 286 285 284 284 284 283 283 282 282 282 282 281 281 280 280 279 279 278 278
306 305 304 302 300 298 297 297 296 295 295 294 293 292 290 290 290 290 289 289 288 288 288 288 287 286 285 284 284 283 283 283 282 282 281 281 280 280 279 278 278 278 277
306 304 303 301 299 297 296 296 298 296 295 294 293 291 290 289 288 289 289 288 288 287 288 288 287 286 285 285 284 283 283 283 282 282 281 280 280 278 278 278 277 277 276
306 304 302 300 298 297 295 296 297 297 295 294 292 291 289 288 288 287 287 286 286 286 286 286 286 286 285 284 283 282 282 281 281 280 279 280 280 279 279 279 278 278 277
Wind_Speed
22 22 21 20 18 16 15 14 14 13 10 8 8 6 4 4 3 1 2 4 5 5 5 5 6 6 8 9 10 10 10 10 14 7 6 9 6 2 1 3 5 7 7
23 23 21 19 18 17 16 15 14 13 10 8 8 8 7 6 4 1 2 3 5 5 5 4 6 6 7 9 10 11 10 8 13 11 7 6 5 1 3 2 4 7 6
22 22 22 21 19 17 16 15 14 13 11 11 8 7 6 3 3 3 3 3 4 4 4 5 4 6 6 8 9 9 10 8 9 11 8 6 5 11 0 2 7 7 7
22 22 22 20 20 18 16 16 15 14 12 11 8 8 4 4 6 3 2 3 4 4 4 4 5 6 7 7 9 9 9 8 8 5 8 6 5 5 5 3 5 8 8
21 22 23 22 21 19 17 16 15 14 12 11 9 8 6 6 5 3 2 1 3 3 4 4 5 6 6 8 9 9 9 8 8 8 8 7 3 6 5 8 10 5 6
16 19 21 21 21 20 17 16 15 14 12 11 10 9 9 8 6 4 3 2 2 3 4 5 5 6 7 7 8 8 10 10 9 8 9 9 6 7 6 7 9 10 7
14 18 21 22 22 20 19 17 17 15 13 13 11 11 10 8 7 5 5 3 2 2 2 3 4 5 7 7 8 9 10 10 9 8 7 8 7 7 7 8 11 10 3
13 17 20 21 23 21 19 17 16 15 13 12 11 11 10 8 7 7 5 5 4 3 2 4 5 6 7 8 10 10 9 8 8 9 9 7 8 8 9 11 12 12 7
11 14 17 20 22 22 21 19 18 16 14 13 12 11 10 10 9 8 8 6 6 4 5 6 7 7 8 10 10 9 8 8 8 9 10 8 8 9 8 8 9 10 8
9 11 14 19 20 20 20 20 19 17 16 14 12 11 11 10 9 9 8 8 8 8 8 8 8 8 9 8 8 8 8 8 8 8 9 9 8 8 8 8 8 8 7
8 10 13 16 18 19 20 20 20 20 18 15 14 13 12 11 11 10 10 9 10 10 9 9 9 8 8 8 9 9 8 9 8 8 9 9 9 8 8 8 8 8 8
8 11 14 18 23 24 22 21 20 21 19 17 16 15 14 13 12 11 11 11 11 11 11 10 9 9 9 8 8 8 8 8 8 8 8 9 8 8 9 8 9 9 8
14 17 18 22 26 31 31 26 23 22 21 19 18 16 15 14 13 13 13 12 12 12 11 11 9 10 9 8 8 8 7 7 7 8 7 8 8 8 8 9 9 10 9
25 24 24 30 26 30 36 30 25 26 24 20 19 18 17 16 15 14 14 14 14 13 13 12 11 10 9 8 8 7 6 7 6 6 7 8 8 9 9 8 10 10 10
20 20 25 24 31 33 33 34 26 27 25 23 21 19 18 17 16 16 16 17 15 14 14 13 12 11 10 9 9 6 6 6 5 5 6 7 8 8 9 9 10 11 10
22 20 20 22 25 32 37 30 28 30 26 24 22 21 20 19 18 17 18 18 17 16 15 14 11 10 9 8 7 6 5 4 4 3 4 5 6 7 8 9 9 11 12
19 16 18 21 23 26 28 30 30 29 28 25 23 22 21 20 19 18 18 18 17 17 15 14 13 11 9 8 7 5 5 4 3 3 3 3 6 7 8 10 12 12 11
10 12 12 14 18 21 24 26 30 31 28 26 25 24 23 21 21 21 20 18 17 16 15 14 12 11 10 8 7 5 4 2 1 2 2 4 6 7 8 8 8 8 10
9 8 7 9 13 18 21 25 31 32 30 28 27 25 24 23 23 22 21 20 18 16 14 13 12 10 11 9 7 5 2 1 1 2 3 4 5 7 7 7 8 9 11
7 5 4 7 12 16 20 26 31 31 31 29 27 26 24 24 23 23 23 21 18 16 15 14 13 13 11 10 7 5 6 4 4 4 6 4 6 7 7 7 7 7 9
6 4 6 7 10 16 20 28 32 32 31 29 28 24 24 24 23 23 22 21 19 17 16 15 13 15 11 11 8 6 7 7 7 7 5 10 8 8 8 8 8 7 7
7 6 7 8 10 14 25 28 33 34 33 30 28 26 25 24 23 23 22 21 20 19 17 16 14 13 15 13 10 9 8 9 9 9 10 11 9 9 8 8 8 7 7
9 8 9 10 11 13 20 27 32 34 32 31 27 28 29 26 24 25 25 23 21 20 21 20 19 17 16 16 13 12 10 11 12 11 10 10 10 10 9 8 8 7 6
11 9 11 12 12 14 17 23 28 31 30 29 30 31 32 32 29 27 30 27 27 25 25 24 24 20 19 19 16 14 13 13 13 11 11 10 11 10 10 9 8 8 7
12 11 13 14 14 15 17 21 24 26 28 28 32 28 31 32 32 32 34 33 30 31 29 26 23 21 21 19 16 14 14 13 13 12 12 11 9 7 9 8 10 7 6
12 13 14 15 16 17 19 21 24 24 27 29 29 27 25 29 28 31 32 30 31 28 28 25 22 21 21 20 17 17 17 17 15 13 11 9 10 9 9 9 9 9 11
Wind_Direction
198 191 188 184 179 176 169 167 169 167 158 146 144 137 133 124 106 49 360 355 2 8 22 21 7 27 356 355 353 354 352 350 339 5 299 281 273 286 274 335 342 8 8
194 190 187 187 183 179 174 172 171 172 158 160 157 159 152 152 152 142 3 5 358 3 9 14 8 7 13 354 355 1 4 355 354 353 331 310 231 260 287 348 345 15 17
197 191 192 191 186 186 180 174 174 170 163 176 161 157 165 142 108 80 38 7 356 356 358 357 356 11 16 7 6 9 7 8 1 11 20 331 321 336 321 356 6 18 22
200 198 198 198 193 189 182 177 177 174 178 168 170 162 151 155 165 140 136 342 351 351 358 4 19 27 25 22 19 16 23 27 9 14 13 5 346 347 331 323 11 359 17
195 200 201 198 193 191 185 178 177 179 181 174 172 166 161 174 152 147 96 357 346 356 7 26 34 36 38 28 32 33 36 32 37 16 15 1 346 353 331 306 337 348 2
195 196 196 195 193 191 186 180 174 175 172 169 167 163 169 162 163 158 137 129 82 14 33 37 37 38 45 51 47 49 42 43 41 32 28 23 38 0 8 347 337 332 330
189 191 190 192 190 190 187 180 175 173 172 175 171 177 170 163 167 158 164 150 127 100 59 60 76 58 64 65 67 59 50 48 46 42 39 33 30 25 15 9 354 344 33
193 194 195 194 191 190 189 182 179 174 170 165 165 176 173 159 166 163 165 157 153 137 126 109 94 85 83 82 74 64 62 63 52 48 53 41 31 34 22 20 13 12 34
200 199 196 195 193 192 189 184 181 178 172 167 176 179 172 171 173 174 168 161 162 143 142 124 106 100 96 86 80 81 73 68 56 47 48 46 32 28 23 25 23 19 10
207 202 200 198 198 194 191 184 183 183 176 173 179 183 177 179 177 180 172 170 171 157 138 125 117 106 94 92 91 79 75 71 63 50 48 50 42 29 25 26 20 17 2
231 224 208 205 202 199 196 190 185 183 180 177 183 179 175 178 184 178 177 169 159 151 141 136 126 114 106 96 92 89 81 75 67 55 49 45 40 33 28 24 19 13 8
245 232 223 210 203 200 198 195 190 187 185 183 182 179 181 181 180 176 173 170 159 153 149 140 135 126 113 102 100 97 88 82 72 59 48 48 44 39 24 23 18 10 11
275 242 222 216 212 212 200 194 194 192 192 187 185 182 184 179 177 177 171 165 161 160 150 144 145 138 127 114 104 98 92 88 78 65 55 52 56 39 36 20 17 11 11
273 253 236 235 218 216 213 204 196 200 197 189 188 187 182 177 176 173 171 168 166 161 160 160 157 147 140 128 120 106 94 86 80 70 61 54 49 44 43 30 24 18 18
270 255 248 233 230 225 219 209 200 206 196 192 187 186 181 176 176 177 175 174 173 174 170 165 165 162 157 150 138 124 121 109 85 68 42 46 43 41 38 35 31 32 34
262 262 243 233 223 223 223 206 200 208 192 192 189 185 183 179 181 179 179 179 177 176 177 176 172 166 161 155 151 146 141 126 110 91 72 28 31 30 34 28 25 28 28
269 270 258 232 221 220 215 206 199 204 193 192 190 187 185 180 181 180 178 178 177 180 180 178 177 172 169 163 159 161 153 139 120 80 55 33 25 21 15 12 13 14 17
284 271 255 232 219 211 209 199 198 201 192 192 191 188 186 180 181 182 181 178 178 179 179 182 180 178 178 177 175 176 164 144 88 40 17 13 10 12 6 3 360 357 360
288 288 258 224 210 204 201 195 197 197 194 192 191 189 184 183 184 184 183 182 180 176 174 177 174 181 187 187 189 195 174 276 279 311 342 349 352 348 345 341 348 350 347
291 274 234 199 198 196 194 192 194 193 196 192 190 188 184 186 187 186 186 185 182 179 180 179 180 185 203 195 198 189 179 222 256 312 316 320 336 331 322 325 327 327 330
281 250 212 203 201 192 190 196 197 197 197 193 194 185 187 186 189 187 188 186 184 183 185 186 187 199 208 199 208 206 189 214 219 234 233 289 311 314 303 302 307 311 317
261 235 211 200 195 190 193 201 202 201 203 198 189 187 183 188 191 190 190 190 188 187 189 190 192 198 212 219 211 226 227 224 232 230 247 272 294 300 291 285 289 296 305
249 229 215 203 196 193 205 203 206 209 208 202 195 186 188 187 191 192 194 192 192 194 195 197 201 205 211 224 223 229 236 235 241 247 261 282 292 295 288 283 280 283 299
247 230 212 205 200 196 210 204 207 207 207 203 196 196 194 191 190 197 199 194 195 199 204 206 213 215 225 230 233 238 239 242 249 256 262 272 282 287 286 281 277 281 286
239 224 213 209 205 197 201 202 202 200 203 207 202 199 204 203 201 202 208 208 207 207 214 221 222 221 229 237 245 250 254 253 251 259 267 271 287 291 303 297 295 290 284
235 224 217 213 208 201 199 203 201 200 205 200 198 198 198 204 207 210 215 219 224 224 226 230 234 235 238 244 248 253 258 259 262 254 253 257 259 260 261 263 266 270 276